1333238426203,19.0806
1333238486203,19.0120
1333238546203,19.0822
1333238606203,19.0390
1333238666203,19.0382
1333238726203,19.0417
1333238786203,19.0533
1333238846203,19.0799
1333238906203,19.0610
1333238966203,19.0797
1333239026203,19.0698
1333239086203,19.0578
1333239146203,19.0809
1333239206203,19.0847
1333239266203,19.1153
1333239326203,19.0715
1333239386203,19.1273
1333239446203,19.1038
1333239506203,19.0793
1333239566203,19.0753
1333239626203,19.0781
1333239686203,19.1576
1333239746203,19.3280
1333239806203,19.0854
1333239866203,19.0979
1333239926203,19.0749
1333239986203,19.0930
1333240046203,19.0789
1333240106203,19.0755
1333240166203,19.0257
1333240226203,19.0222
1333240286203,19.0347
1333240346203,19.0354
1333240406203,19.0287
1333240466203,19.0731
1333240526203,19.0554
1333240586203,19.0834
1333240646203,19.0378
1333240706203,19.0801
1333240766203,19.0117
1333240826203,19.0966
1333240886203,19.0485
1333240946203,19.0023
1333241006203,19.0509
1333241066203,19.1272
1333241126203,19.0536
1333241186203,19.0204
1333241246203,18.9946
1333241306203,18.9765
1333241366203,18.9901
1333241426203,19.0439
1333241486203,19.0344
1333241546203,18.9881
1333241606203,19.0174
1333241666203,19.0431
1333241726203,19.0450
1333241786203,19.0638
1333241846203,19.0519
1333241906203,19.0183
1333241966203,18.9822
1333242026217,19.0589
1333242086217,19.0818
1333242146217,19.0684
1333242206217,19.0685
1333242266217,19.0580
1333242326217,19.0544
1333242386217,19.0354
1333242446217,19.0092
1333242506217,19.0565
1333242566217,19.0362
1333242626217,19.0183
1333242686217,19.0550
1333242746217,19.0616
1333242806217,19.0668
1333242866217,19.0578
1333242926217,19.1004
1333242986217,19.1114
1333243046217,19.1342
1333243106217,19.0885
1333243166217,19.1349
1333243226217,19.0860
1333243286217,19.1137
1333243346217,19.0977
1333243406217,19.0755
1333243466217,19.1191
1333243526217,19.1069
1333243586217,19.0975
1333243646217,19.1108
1333243706217,19.0887
1333243766217,19.0933
1333243826217,19.0377
1333243886217,19.0480
1333243946217,19.0418
1333244006217,19.0319
1333244066217,19.0483
1333244126217,19.0888
1333244186217,19.0568
1333244246217,19.0753
1333244306217,19.0251
1333244366217,19.0171
1333244426217,19.0150
1333244486217,19.0386
1333244546217,19.0247
1333244606217,19.0635
1333244666217,19.0425
1333244726217,18.9952
1333244786217,19.0297
1333244846217,19.0069
1333244906217,19.0199
1333244966217,19.0570
1333245026217,19.0238
1333245086217,19.0211
1333245146217,19.0286
1333245206217,19.0993
1333245266217,19.0624
1333245326217,19.0013
1333245386217,19.0690
1333245446217,19.0832
1333245506217,18.9664
1333245566217,19.0048
1333245626230,19.0287
1333245686230,18.9825
1333245746230,19.0275
1333245806231,18.9977
1333245866230,19.0092
1333245926230,18.9896
1333245986230,18.9822
1333246046230,19.0377
1333246106230,18.9809
1333246166230,19.0643
1333246226230,19.0256
1333246286230,19.0333
1333246346230,19.0144
1333246406230,18.9802
1333246466230,19.0492
1333246526230,18.9963
1333246586230,19.0528
1333246646230,19.0130
1333246706230,18.9762
1333246766230,19.0383
1333246826230,19.0647
1333246886230,19.0299
1333246946230,18.9491
1333247006230,18.9842
1333247066230,18.9519
1333247126230,18.9701
1333247186230,19.0055
1333247246230,19.0610
1333247306230,19.0532
1333247366230,19.0487
1333247426230,19.0270
1333247486230,19.0392
1333247546230,19.0046
1333247606230,19.0514
1333247666230,19.1099
1333247726230,19.1091
1333247786230,19.0995
1333247846230,19.0994
1333247906230,19.0734
1333247966230,19.0650
1333248026230,19.0840
1333248086230,19.0808
1333248146230,19.0877
1333248206230,19.0996
1333248266230,19.1319
1333248326230,19.0309
1333248386230,19.0590
1333248446230,19.0454
1333248506231,19.0347
1333248566230,19.0051
1333248626230,18.9783
1333248686230,19.0681
1333248746230,19.0745
1333248806230,18.9751
1333248866230,18.9907
1333248926230,19.0283
1333248986230,19.0308
1333249046230,19.0692
1333249106230,18.9925
1333249166230,18.9527
1333249226244,18.9942
1333249286244,19.0249
1333249346244,18.9851
1333249406244,19.0182
1333249466244,19.0402
1333249526244,19.0050
1333249586244,18.9904
1333249646244,19.0180
1333249706244,18.9540
1333249766244,18.9763
1333249826244,18.9843
1333249886244,19.0436
1333249946244,19.0070
1333250006244,18.9925
1333250066244,19.0929
1333250126244,18.9895
1333250186244,18.9883
1333250246244,19.0425
1333250306244,19.0306
1333250366244,18.9964
1333250426244,19.0015
1333250486244,19.0186
1333250546244,18.9673
1333250606244,19.0561
1333250666244,19.0312
1333250726244,18.9629
1333250786244,19.0222
1333250846244,19.0000
1333250906244,19.0015
1333250966244,18.9692
1333251026244,18.9507
1333251086244,18.9889
1333251146244,18.9617
1333251206244,19.0044
1333251266244,18.9780
1333251326244,18.9792
1333251386244,19.0394
1333251446244,18.9715
1333251506244,18.9583
1333251566244,19.0355
1333251626244,19.0317
1333251686244,19.0789
1333251746244,18.9909
1333251806244,19.0007
1333251866244,19.0330
1333251926244,18.9887
1333251986244,19.0817
1333252046244,19.0571
1333252106244,19.0248
1333252166244,19.0426
1333252226244,19.0497
1333252286244,19.0462
1333252346244,19.0382
1333252406244,19.0495
1333252466244,18.9535
1333252526244,19.0062
1333252586244,19.0426
1333252646244,19.0269
1333252706244,18.9678
1333252766244,18.9930
1333252826258,18.9999
1333252886258,18.9352
1333252946258,18.9476
1333253006258,18.9316
1333253066258,19.0012
1333253126258,19.0330
1333253186258,18.9785
1333253246258,19.0136
1333253306258,19.0362
1333253366258,18.9874
1333253426258,18.9984
1333253486258,19.0076
1333253546258,19.0053
1333253606258,18.9724
1333253666258,19.0284
1333253726258,19.0397
1333253786258,19.0658
1333253846258,19.0094
1333253906258,18.9826
1333253966258,19.0276
1333254026258,18.9706
1333254086258,18.9297
1333254146258,18.9362
1333254206258,18.9785
1333254266258,19.0053
1333254326258,19.0277
1333254386258,19.0129
1333254446258,19.0185
1333254506258,19.0060
1333254566258,19.0114
1333254626258,19.0140
1333254686258,18.9716
1333254746258,18.9608
1333254806258,19.0011
1333254866258,18.9657
1333254926258,18.9835
1333254986258,19.0225
1333255046258,19.0031
1333255106258,18.9735
1333255166258,18.9826
1333255226258,18.9875
1333255286258,18.9680
1333255346258,19.0087
1333255406258,18.9936
1333255466258,19.0215
1333255526258,18.9909
1333255586258,18.9669
1333255646258,19.0184
1333255706258,18.9858
1333255766258,18.9674
1333255826258,18.9627
1333255886258,18.9890
1333255946258,18.9330
1333256006258,18.9722
1333256066258,18.9669
1333256126258,18.9869
1333256186258,18.9409
1333256246258,18.9424
1333256306258,18.9744
1333256366258,18.8967
1333256426271,18.9688
1333256486271,18.9387
1333256546271,18.9611
1333256606271,18.9754
1333256666271,18.9986
1333256726271,18.9318
1333256786271,18.9108
1333256846271,18.9595
1333256906271,18.9414
1333256966271,18.9453
1333257026271,18.9060
1333257086271,18.9118
1333257146271,18.8631
1333257206271,18.9668
1333257266271,18.8555
1333257326271,18.9342
1333257386271,19.0267
1333257446271,18.9223
1333257506271,18.9535
1333257566271,18.9572
1333257626271,18.9717
1333257686271,18.9758
1333257746271,18.9497
1333257806271,18.8846
1333257866271,18.9512
1333257926271,18.9422
1333257986271,18.9855
1333258046271,18.9574
1333258106271,18.9131
1333258166271,18.9412
1333258226271,18.9343
1333258286271,18.8927
1333258346271,18.9547
1333258406271,18.9642
1333258466271,19.0005
1333258526271,18.9716
1333258586271,18.9518
1333258646271,18.9002
1333258706271,18.9352
1333258766271,18.9536
1333258826271,18.9036
1333258886271,18.8561
1333258946271,18.9441
1333259006271,18.9157
1333259066271,18.8922
1333259126271,18.9292
1333259186271,18.8551
1333259246271,18.9110
1333259306271,18.8938
1333259366271,18.9349
1333259426271,18.9188
1333259486271,18.8858
1333259546271,18.9089
1333259606271,18.9511
1333259666271,19.0023
1333259726271,19.0282
1333259786271,19.0001
1333259846271,18.9453
1333259906271,18.9601
1333259966271,18.9383
1333260026285,18.9932
1333260086285,19.0022
1333260146285,18.9996
1333260206285,18.9756
1333260266285,18.9764
1333260326285,18.9631
1333260386285,18.9524
1333260446285,18.9233
1333260506285,18.9665
1333260566285,18.9781
1333260626285,18.9831
1333260686285,19.0310
1333260746285,19.0535
1333260806285,19.0423
1333260866285,18.9499
1333260926285,18.9676
1333260986285,19.0108
1333261046285,19.0088
1333261106285,19.0104
1333261166285,19.0097
1333261226285,18.9824
1333261286285,19.0356
1333261346285,19.0335
1333261406285,18.9600
1333261466285,18.9640
1333261526285,18.9710
1333261586285,18.9823
1333261646285,18.9444
1333261706285,18.9777
1333261766285,18.9557
1333261826285,19.0052
1333261886285,19.0037
1333261946285,18.9765
1333262006285,18.9854
1333262066285,18.9477
1333262126285,18.9455
1333262186285,18.9292
1333262246285,18.9688
1333262306285,18.9791
1333262366285,19.0218
1333262426285,19.3517
1333262486285,19.0145
1333262546285,18.9506
1333262606285,19.0154
1333262666285,19.0159
1333262726285,18.9590
1333262786285,19.0130
1333262846285,18.9526
1333262906285,18.9726
1333262966285,18.9543
1333263026285,18.9375
1333263086285,18.8938
1333263146285,18.9472
1333263206285,18.9161
1333263266285,18.9996
1333263326285,18.9297
1333263386285,18.9408
1333263446285,18.9461
1333263506285,18.9344
1333263566285,18.8942
1333263626299,18.9231
1333263686299,18.9267
1333263746299,18.9788
1333263806299,18.9774
1333263866299,18.9900
1333263926299,18.9551
1333263986299,18.9886
1333264046299,18.9598
1333264106299,18.9723
1333264166299,18.9820
1333264226299,18.9477
1333264286299,19.0152
1333264346299,18.9576
1333264406299,18.9738
1333264466299,18.9860
1333264526299,19.0284
1333264586299,18.9590
1333264646299,18.9662
1333264706299,18.9836
1333264766299,18.9791
1333264826299,18.9962
1333264886299,18.9967
1333264946299,18.9697
1333265006299,19.0225
1333265066299,18.9252
1333265126299,18.9785
1333265186299,18.9399
1333265246299,18.9691
1333265306299,18.9902
1333265366299,18.9755
1333265426299,18.9800
1333265486299,18.9952
1333265546299,18.9562
1333265606299,18.9636
1333265666299,19.0228
1333265726299,19.0041
1333265786299,18.9939
1333265846299,18.9598
1333265906299,18.9695
1333265966299,19.0029
1333266026299,19.0449
1333266086299,19.0207
1333266146299,19.0338
1333266206299,18.9809
1333266266299,18.9823
1333266326299,18.9311
1333266386299,18.9565
1333266446299,18.9375
1333266506299,18.8805
1333266566299,18.9620
1333266626299,18.9743
1333266686299,18.9504
1333266746299,18.9342
1333266806299,18.9365
1333266866299,18.9293
1333266926299,18.9384
1333266986299,18.9128
1333267046299,18.9297
1333267106299,18.9012
1333267166299,18.9759
1333267226312,19.0459
1333267286312,18.9945
1333267346312,18.9319
1333267406312,18.9732
1333267466312,18.9996
1333267526312,19.0127
1333267586312,19.0122
1333267646312,18.9393
1333267706312,19.0148
1333267766312,18.9681
1333267826312,18.9245
1333267886312,18.9704
1333267946312,19.0248
1333268006312,19.0532
1333268066312,19.0031
1333268126312,19.0101
1333268186312,18.9867
1333268246312,18.9922
1333268306312,18.9404
1333268366312,18.9794
1333268426312,18.9543
1333268486312,18.9154
1333268546312,18.9900
1333268606312,19.0121
1333268666312,18.9715
1333268726312,18.9792
1333268786312,18.9622
1333268846312,19.0069
1333268906312,19.0231
1333268966312,19.0254
1333269026312,18.9134
1333269086312,18.9043
1333269146312,18.9660
1333269206312,18.9678
1333269266312,18.9192
1333269326312,18.8849
1333269386312,18.9351
1333269446312,18.8910
1333269506312,19.0131
1333269566312,18.9601
1333269626312,18.9520
1333269686312,18.9558
1333269746312,18.9248
1333269806312,18.9784
1333269866312,18.9982
1333269926312,18.9490
1333269986312,18.9151
1333270046312,18.9063
1333270106312,18.9263
1333270166312,18.9502
1333270226312,18.9832
1333270286312,18.9653
1333270346312,19.0232
1333270406312,18.9285
1333270466312,19.0110
1333270526312,18.9222
1333270586312,18.9374
1333270646312,18.9419
1333270706312,18.9892
1333270766312,18.9439
1333270826326,18.9217
1333270886326,18.9885
1333270946326,18.9400
1333271006326,18.9406
1333271066326,18.9420
1333271126326,18.9516
1333271186326,18.9252
1333271246326,18.8888
1333271306326,18.9667
1333271366326,18.9260
1333271426326,18.9649
1333271486326,18.9479
1333271546326,18.9348
1333271606326,18.9328
1333271666326,18.9460
1333271726326,18.8985
1333271786326,18.9899
1333271846326,18.9329
1333271906326,18.9382
1333271966326,18.9742
1333272026326,18.9452
1333272086326,18.9359
1333272146326,18.9852
1333272206326,18.9857
1333272266326,18.9446
1333272326326,18.9456
1333272386326,18.9515
1333272446326,18.8984
1333272506326,18.9239
1333272566326,18.9086
1333272626326,18.9587
1333272686326,18.8897
1333272746326,18.9388
1333272806326,18.9643
1333272866326,19.0640
1333272926326,18.9953
1333272986326,18.9307
1333273046326,18.9569
1333273106326,18.9138
1333273166326,18.9274
1333273226326,18.9681
1333273286326,18.9272
1333273346326,18.9429
1333273406326,18.9019
1333273466326,18.9720
1333273526326,18.9484
1333273586326,18.9331
1333273646326,18.9904
1333273706326,19.0422
1333273766326,18.9693
1333273826326,18.9098
1333273886326,18.9797
1333273946326,18.9645
1333274006326,18.9679
1333274066326,18.9303
1333274126326,18.9562
1333274186326,18.9964
1333274246326,18.9764
1333274306326,19.0061
1333274366326,18.9709
1333274426339,18.9233
1333274486339,18.9580
1333274546339,18.9482
1333274606339,18.9313
1333274666339,18.9368
1333274726339,18.9827
1333274786339,18.9653
1333274846339,18.9991
1333274906339,18.9321
1333274966339,18.9262
1333275026339,19.0007
1333275086339,18.9657
1333275146339,18.9642
1333275206339,18.9101
1333275266339,18.9445
1333275326339,19.0112
1333275386339,18.9564
1333275446339,18.9353
1333275506339,18.9559
1333275566339,19.0087
1333275626339,18.9843
1333275686339,18.9395
1333275746339,18.9562
1333275806339,18.9316
1333275866339,18.9102
1333275926339,18.9289
1333275986339,19.0081
1333276046339,19.0270
1333276106339,18.9943
1333276166339,18.9868
1333276226339,18.9708
1333276286339,18.9819
1333276346339,18.9440
1333276406339,18.9442
1333276466339,19.0000
1333276526339,18.9309
1333276586339,18.9363
1333276646339,18.9734
1333276706339,18.9702
1333276766339,18.9470
1333276826339,19.0036
1333276886339,19.0121
1333276946339,18.9341
1333277006339,18.9722
1333277066339,18.9933
1333277126339,18.9876
1333277186339,19.0078
1333277246339,19.0033
1333277306339,18.9919
1333277366339,19.0355
1333277426339,19.0348
1333277486339,19.0586
1333277546339,18.9898
1333277606339,19.0087
1333277666339,19.0191
1333277726339,19.0968
1333277786339,19.0653
1333277846339,19.0476
1333277906339,19.1369
1333277966339,19.1432
1333278026353,19.2003
1333278086353,19.2714
1333278146353,19.3295
1333278206353,19.2739
1333278266353,19.2636
1333278326353,19.2000
1333278386353,19.2681
1333278446353,19.2329
1333278506353,19.1897
1333278566353,19.2399
1333278626353,19.2437
1333278686353,19.2644
1333278746353,19.2288
1333278806353,19.2315
1333278866353,19.2389
1333278926353,19.1603
1333278986353,19.1875
1333279046353,19.1503
1333279106353,19.1856
1333279166353,19.1710
1333279226353,19.1669
1333279286353,19.1554
1333279346353,19.1100
1333279406353,19.1223
1333279466353,19.0697
1333279526353,19.0360
1333279586353,19.1003
1333279646353,19.0264
1333279706353,19.1059
1333279766353,19.1197
1333279826353,19.0858
1333279886353,19.1428
1333279946353,19.0735
1333280006353,18.9994
1333280066353,19.0720
1333280126353,19.0407
1333280186353,19.0387
1333280246353,19.1595
1333280306353,18.9918
1333280366353,19.1258
1333280426353,19.0881
1333280486353,19.0772
1333280546353,19.0482
1333280606353,19.0581
1333280666353,19.1158
1333280726353,19.1149
1333280786353,19.1255
1333280846353,19.1444
1333280906353,19.1203
1333280966353,19.0931
1333281026353,19.0946
1333281086353,19.0931
1333281146353,19.0798
1333281206353,19.0811
1333281266353,19.0154
1333281326353,19.1259
1333281386353,19.1083
1333281446353,19.0782
1333281506353,19.1163
1333281566353,19.1000
1333281626366,19.0760
1333281686366,19.0353
1333281746366,19.0054
1333281806366,19.0388
1333281866366,19.0667
1333281926366,19.0468
1333281986366,19.0242
1333282046366,19.0765
1333282106366,19.0409
1333282166366,19.0471
1333282226366,19.0868
1333282286366,19.0602
1333282346366,19.0857
1333282406366,19.0697
1333282466366,19.0704
1333282526366,19.0501
1333282586366,19.0794
1333282646366,19.1024
1333282706366,19.0773
1333282766366,19.0281
1333282826366,19.0513
1333282886366,19.0330
1333282946366,19.0419
1333283006366,19.0774
1333283066366,19.0667
1333283126366,19.1073
1333283186366,19.0821
1333283246366,18.9962
1333283306366,19.0945
1333283366366,19.0794
1333283426366,19.0792
1333283486366,19.0441
1333283546366,19.0822
1333283606366,19.0557
1333283666366,19.0684
1333283726366,19.1074
1333283786366,19.0432
1333283846366,19.0411
1333283906366,19.1192
1333283966366,19.1385
1333284026366,19.0915
1333284086366,19.0646
1333284146366,19.0523
1333284206366,19.0890
1333284266366,19.0710
1333284326366,19.0727
1333284386366,19.1306
1333284446366,19.0877
1333284506366,19.0232
1333284566366,19.1489
1333284626366,19.1115
1333284686366,19.0855
1333284746366,19.0540
1333284806366,19.0438
1333284866366,19.0666
1333284926366,19.0900
1333284986366,19.0447
1333285046366,19.0206
1333285106366,19.0437
1333285166366,19.0651
1333285226379,19.1146
1333285286379,19.0335
1333285346379,19.0368
1333285406379,19.0448
1333285466379,19.0454
1333285526379,19.0389
1333285586379,18.9965
1333285646379,19.0325
1333285706379,19.0132
1333285766379,19.0483
1333285826379,19.0468
1333285886379,19.0804
1333285946379,19.0717
1333286006379,19.0722
1333286066379,19.0789
1333286126379,19.0975
1333286186379,19.0357
1333286246379,19.0384
1333286306379,19.0536
1333286366379,19.0565
1333286426379,19.0325
1333286486379,19.0585
1333286546379,18.9046
1333286606379,19.0153
1333287746379,19.0268
1333287806379,19.0602
1333287866379,19.1252
1333287926379,19.0889
1333287986379,19.1158
1333288046379,19.0689
1333288106379,19.0588
1333288166379,19.0689
1333288226379,19.0411
1333288286379,19.0818
1333288346379,19.0491
1333288406379,19.0439
1333288466379,18.9296
1333288526379,19.1201
1333288586379,19.0591
1333288646379,19.1089
1333288706379,19.1112
1333288766379,19.1639
1333288826393,19.0616
1333288886393,19.0149
1333288946393,19.0700
1333289006393,19.0542
1333289066393,19.0522
1333289126393,19.0506
1333289186393,19.0315
1333289246393,19.0398
1333289306393,19.0337
1333289366393,19.0287
1333289426393,19.0136
1333289486393,18.9815
1333289546393,19.0057
1333289606393,19.0331
1333289666393,18.9916
1333289726393,19.0040
1333289786393,18.9807
1333289846393,18.9698
1333289906393,18.9344
1333289966393,18.9941
1333290026393,18.9967
1333290086393,18.9975
1333290146393,19.0073
1333290206393,18.9820
1333290266393,19.0178
1333290326393,18.9549
1333290386393,19.0089
1333290446393,18.9570
1333290506393,19.0217
1333290566393,18.9559
1333290626393,19.0004
1333290686393,18.9733
1333290746393,18.9925
1333290806393,19.0210
1333290866393,19.0027
1333290926393,19.0305
1333290986393,18.9912
1333291046393,19.1242
1333291106393,19.0867
1333291166393,19.0506
1333291226393,19.0593
1333291286393,19.0597
1333291346393,18.9975
1333291406393,19.0588
1333291466393,19.0960
1333291526393,19.0610
1333291586393,19.0828
1333291646393,19.0471
1333291706393,19.0449
1333291766393,19.0282
1333291826393,19.0698
1333291886393,19.0382
1333291946393,19.0493
1333292006393,19.0657
1333292066393,19.0283
1333292126393,19.0062
1333292186393,19.0323
1333292246393,19.0650
1333292306393,19.0936
1333292366393,19.0632
1333292426406,19.0888
1333292486406,19.1094
1333292546406,19.1107
1333292606406,19.0871
1333292666406,19.1395
1333292726406,19.1079
1333292786406,19.1281
1333292846406,19.0950
1333292906406,19.1385
1333292966406,19.1178
1333293026406,19.1538
1333293086406,19.1336
1333293146406,19.1324
1333293206406,19.1025
1333293266406,19.1350
1333293326406,19.0590
1333293386406,19.1368
1333293446406,19.0461
1333293506406,18.9940
1333293566406,19.0300
1333293626406,19.1754
1333293686406,19.0115
1333293746406,19.0322
1333293806406,19.0192
1333293866406,19.0444
1333293926406,19.0517
1333293986406,19.0090
1333294046406,19.0094
1333294106406,18.9610
1333294166406,19.0116
1333294226406,19.0415
1333294286406,18.9996
1333294346406,18.9953
1333294406406,19.0254
1333294466406,19.0450
1333294526406,19.0594
1333294586406,19.0170
1333294646406,19.0624
1333294706406,19.0211
1333294766406,19.0868
1333294826406,19.0271
1333294886406,19.0278
1333294946406,19.0410
1333295006406,19.0460
1333295066406,19.0012
1333295126406,19.0602
1333295186406,19.0571
1333295246406,19.0838
1333295306406,19.0511
1333295366406,19.1106
1333295426406,19.0701
1333295486406,19.0662
1333295546406,19.0047
1333295606406,19.0477
1333295666406,19.0783
1333295726406,19.0326
1333295786406,19.0691
1333295846406,19.0370
1333295906406,19.0645
1333295966406,19.1007
1333296026419,19.0357
1333296086419,19.0380
1333296146419,19.0587
1333296206419,19.0981
1333296266419,19.0731
1333296326419,19.0265
1333296386419,19.0570
1333296446419,19.1780
1333296506419,19.1606
1333296566419,19.1809
1333296626419,19.2221
1333296686419,19.1406
1333296746419,19.1948
1333296806419,19.1617
1333296866419,19.1845
1333296926419,19.1605
1333296986419,19.0902
1333297046419,19.1185
1333297106419,19.1714
1333297166419,19.1771
1333297226419,19.1079
1333297286419,19.1271
1333297346419,19.1335
1333297406419,19.1377
1333297466419,19.1586
1333297526419,19.1969
1333297586419,19.2073
1333297646419,19.1887
1333297706419,19.1282
1333297766419,19.1801
1333297826419,19.1694
1333297886419,19.2298
1333297946419,19.1753
1333298006419,19.1671
1333298066419,19.1517
1333298126419,19.1317
1333298186419,19.1612
1333298246419,19.1388
1333298306419,19.1549
1333298366419,19.1405
1333298426419,19.1691
1333298486419,19.1976
1333298546419,19.1040
1333298606419,19.0963
1333298666419,19.0844
1333298726419,19.1145
1333298786419,19.1722
1333298846419,19.1493
1333298906419,19.1564
1333298966419,19.1613
1333299026419,19.1491
1333299086419,19.2011
1333299146419,19.1747
1333299206419,19.1688
1333299266419,19.1452
1333299326419,19.1397
1333299386419,19.1908
1333299446419,19.1995
1333299506419,19.2119
1333299566419,19.1157
1333299626432,19.1813
1333299686432,19.1547
1333299746432,19.1495
1333299806432,19.2763
1333299866432,19.1283
1333299926432,19.1868
1333299986432,19.1616
1333300046432,19.1151
1333300106432,19.1366
1333300166432,19.1216
1333300226432,19.1506
1333300286432,19.1467
1333300346432,19.1757
1333300406432,19.1439
1333300466432,19.1804
1333300526432,19.1439
1333300586432,19.1934
1333300646432,19.1995
1333300706432,19.0855
1333300766432,19.1543
1333300826432,19.1026
1333300886432,19.1393
1333300946432,19.1293
1333301006432,19.1076
1333301066432,19.0880
1333301126432,19.1337
1333301186432,19.1147
1333301246432,19.1054
1333301306432,19.1601
1333301366432,19.1497
1333301426432,19.1559
1333301486432,19.1249
1333301546432,19.1181
1333301606432,19.1565
1333301666432,19.0839
1333301726432,19.1248
1333301786432,19.1418
1333301846432,19.1414
1333301906432,19.0560
1333301966432,19.1044
1333302026432,19.1066
1333302086432,19.1025
1333302146432,19.1224
1333302206432,19.1021
1333302266432,19.1412
1333302326432,19.0943
1333302386432,19.1790
1333302446432,19.1415
1333302506432,19.1373
1333302566432,19.1248
1333302626432,19.1586
1333302686432,19.1675
1333302746432,19.1036
1333302806432,19.1526
1333302866432,19.1744
1333302926432,19.2268
1333302986432,19.1909
1333303046432,19.1682
1333303106432,19.1734
1333303166432,19.2249
1333303226446,19.1793
1333303286446,19.1222
1333303346446,19.1220
1333303406446,19.1359
1333303466446,19.1441
1333303526446,19.1437
1333303586446,19.1914
1333303646446,19.2493
1333303706446,19.2135
1333303766446,19.1764
1333303826446,19.1598
1333303886446,19.1734
1333303946446,19.1658
1333304006446,19.1520
1333304066446,19.1766
1333304126446,19.1339
1333304186446,19.0925
1333304246446,19.1335
1333304306446,19.1147
1333304366446,19.1070
1333304426446,19.1254
1333304486446,19.1085
1333304546446,19.1244
1333304606446,19.1142
1333304666446,19.1452
1333304726446,19.1390
1333304786446,19.1155
1333304846446,19.0357